When you browse on this site, cookies collect data to enhance your experience and personalize the content and advertising you see.
Visit our Privacy Policy to learn more. By continuing to use the site, you agree to this use of cookies and data.
  • Em Portugal
  • Lista de países
  • Para 7 dias
  • Temperatura da água
  • Mapa do tempo
  • Widgets de tempo
  • user-avatar
    Iniciar Sessão

    Previsão horária em Albani

    Hoje, 18 Outubro, Sexta-feira

    Tempo Temperatura Precipitação Vento Pressão Humidade
    00:00 +10°C° 0 mm 5 m/s 762 mmHg 74%
    01:00 +11°C° 0 mm 4 m/s 762 mmHg 72%
    02:00 +11°C° 0 mm 4 m/s 762 mmHg 70%
    03:00 +11°C° 0 mm 4 m/s 762 mmHg 71%
    04:00 +11°C° 0 mm 4 m/s 762 mmHg 71%
    05:00 +11°C° 0 mm 3 m/s 762 mmHg 71%
    06:00 +11°C° 0 mm 3 m/s 763 mmHg 70%
    07:00 +12°C° 0 mm 3 m/s 763 mmHg 69%
    08:00 +12°C° 0 mm 3 m/s 764 mmHg 68%
    09:00 +13°C° 0 mm 3 m/s 764 mmHg 66%
    10:00 +14°C° 0 mm 2 m/s 764 mmHg 64%
    11:00 +14°C° 0 mm 2 m/s 764 mmHg 62%
    12:00 +15°C° 0 mm 2 m/s 763 mmHg 61%
    13:00 +15°C° 0 mm 2 m/s 763 mmHg 61%
    14:00 +15°C° 0 mm 2 m/s 763 mmHg 61%
    15:00 +14°C° 0 mm 3 m/s 763 mmHg 62%
    16:00 +14°C° 0 mm 3 m/s 763 mmHg 63%
    17:00 +13°C° 0 mm 3 m/s 763 mmHg 63%
    18:00 +12°C° 0 mm 3 m/s 764 mmHg 68%
    19:00 +11°C° 0 mm 3 m/s 764 mmHg 72%
    20:00 +9°C° 0 mm 3 m/s 764 mmHg 76%
    21:00 +9°C° 0 mm 3 m/s 765 mmHg 77%
    22:00 +9°C° 0 mm 3 m/s 765 mmHg 79%
    23:00 +9°C° 0 mm 3 m/s 765 mmHg 80%

    Amanhã, 19 Outubro, Sábado

    Tempo Temperatura Precipitação Vento Pressão Humidade
    00:00 +8°C° 0 mm 3 m/s 764 mmHg 82%
    01:00 +8°C° 0 mm 3 m/s 764 mmHg 84%
    02:00 +7°C° 0 mm 3 m/s 763 mmHg 86%
    03:00 +7°C° 0 mm 3 m/s 763 mmHg 87%
    04:00 +7°C° 0 mm 3 m/s 764 mmHg 87%
    05:00 +7°C° 0 mm 3 m/s 764 mmHg 88%
    06:00 +8°C° 0 mm 4 m/s 764 mmHg 82%
    07:00 +10°C° 0 mm 5 m/s 764 mmHg 76%
    08:00 +13°C° 0 mm 6 m/s 764 mmHg 70%
    09:00 +14°C° 0 mm 5 m/s 764 mmHg 66%
    10:00 +16°C° 0 mm 5 m/s 764 mmHg 62%
    11:00 +17°C° 0 mm 5 m/s 763 mmHg 57%
    12:00 +19°C° 0 mm 6 m/s 763 mmHg 57%
    13:00 +19°C° 0 mm 6 m/s 762 mmHg 56%
    14:00 +20°C° 0 mm 7 m/s 761 mmHg 56%
    15:00 +18°C° 0 mm 7 m/s 761 mmHg 61%
    16:00 +17°C° 0 mm 7 m/s 761 mmHg 66%
    17:00 +16°C° 0 mm 7 m/s 761 mmHg 72%
    18:00 +15°C° 0 mm 7 m/s 761 mmHg 76%
    19:00 +13°C° 0 mm 6 m/s 761 mmHg 81%
    20:00 +11°C° 0 mm 6 m/s 761 mmHg 85%
    21:00 +11°C° 0 mm 6 m/s 761 mmHg 87%
    22:00 +11°C° 0 mm 6 m/s 761 mmHg 90%
    23:00 +11°C° 0 mm 6 m/s 760 mmHg 92%

    Depois de amanhã, 20 Outubro, Domingo

    Tempo Temperatura Precipitação Vento Pressão Humidade
    00:00 +12°C° 0 mm 5 m/s 760 mmHg 92%
    01:00 +12°C° 0 mm 5 m/s 759 mmHg 92%
    02:00 +12°C° 0 mm 5 m/s 758 mmHg 92%
    03:00 +12°C° 0 mm 5 m/s 758 mmHg 90%
    04:00 +12°C° 0 mm 5 m/s 758 mmHg 88%
    05:00 +12°C° 0 mm 5 m/s 758 mmHg 86%
    06:00 +14°C° 0 mm 5 m/s 757 mmHg 78%
    07:00 +15°C° 0 mm 5 m/s 757 mmHg 69%
    08:00 +17°C° 0 mm 5 m/s 757 mmHg 61%
    09:00 +20°C° 0 mm 5 m/s 756 mmHg 57%
    10:00 +22°C° 0 mm 5 m/s 756 mmHg 53%
    11:00 +25°C° 0 mm 4 m/s 756 mmHg 49%
    12:00 +27°C° 0 mm 4 m/s 755 mmHg 47%
    13:00 +28°C° 0 mm 4 m/s 755 mmHg 45%
    14:00 +29°C° 0 mm 4 m/s 754 mmHg 44%
    15:00 +28°C° 0 mm 4 m/s 754 mmHg 49%
    16:00 +27°C° 0 mm 4 m/s 754 mmHg 55%
    17:00 +26°C° 0 mm 4 m/s 754 mmHg 61%
    18:00 +23°C° 0 mm 4 m/s 755 mmHg 63%
    19:00 +21°C° 0 mm 4 m/s 755 mmHg 66%
    20:00 +18°C° 0 mm 4 m/s 756 mmHg 68%
    21:00 +17°C° 0 mm 4 m/s 756 mmHg 71%
    22:00 +15°C° 0 mm 4 m/s 756 mmHg 75%
    23:00 +14°C° 0 mm 4 m/s 756 mmHg 78%

    21 Outubro, Segunda-feira

    Tempo Temperatura Precipitação Vento Pressão Humidade
    00:00 +13°C° 0 mm 4 m/s 756 mmHg 84%
    01:00 +13°C° 0 mm 4 m/s 756 mmHg 89%
    02:00 +12°C° 0 mm 4 m/s 756 mmHg 94%
    03:00 +12°C° 0 mm 4 m/s 756 mmHg 95%
    04:00 +13°C° 0 mm 4 m/s 756 mmHg 96%
    05:00 +13°C° 0 mm 4 m/s 757 mmHg 97%
    06:00 +14°C° 0 mm 4 m/s 757 mmHg 92%
    07:00 +15°C° 0 mm 5 m/s 757 mmHg 87%
    08:00 +17°C° 0 mm 5 m/s 757 mmHg 82%
    09:00 +19°C° 0 mm 4 m/s 758 mmHg 73%
    10:00 +21°C° 0 mm 4 m/s 758 mmHg 65%
    11:00 +22°C° 0 mm 4 m/s 758 mmHg 56%
    12:00 +22°C° 0 mm 4 m/s 758 mmHg 56%
    13:00 +22°C° 0 mm 4 m/s 758 mmHg 56%
    14:00 +22°C° 0 mm 4 m/s 758 mmHg 56%
    15:00 +21°C° 0 mm 4 m/s 758 mmHg 58%
    16:00 +20°C° 0 mm 4 m/s 758 mmHg 60%
    17:00 +19°C° 0 mm 4 m/s 758 mmHg 62%
    18:00 +17°C° 0 mm 4 m/s 758 mmHg 68%
    19:00 +16°C° 0 mm 3 m/s 759 mmHg 75%
    20:00 +14°C° 0 mm 2 m/s 760 mmHg 82%
    21:00 +14°C° 0 mm 2 m/s 760 mmHg 81%
    22:00 +13°C° 0 mm 2 m/s 760 mmHg 80%
    23:00 +12°C° 0 mm 3 m/s 760 mmHg 80%

    22 Outubro, Terça-feira

    Tempo Temperatura Precipitação Vento Pressão Humidade
    00:00 +13°C° 0 mm 2 m/s 760 mmHg 82%
    01:00 +13°C° 0 mm 2 m/s 760 mmHg 84%
    02:00 +13°C° 0 mm 2 m/s 760 mmHg 87%
    03:00 +13°C° 0 mm 2 m/s 760 mmHg 86%
    04:00 +14°C° 0 mm 2 m/s 760 mmHg 86%
    05:00 +13°C° 0 mm 3 m/s 760 mmHg 85%
    06:00 +15°C° 0 mm 2 m/s 760 mmHg 84%
    07:00 +16°C° 0 mm 2 m/s 760 mmHg 83%
    08:00 +17°C° 0 mm 2 m/s 761 mmHg 81%
    09:00 +18°C° 0.2 mm 2 m/s 760 mmHg 81%
    10:00 +19°C° 0.2 mm 2 m/s 760 mmHg 80%
    11:00 +20°C° 0.2 mm 2 m/s 760 mmHg 79%
    12:00 +20°C° 0.5 mm 2 m/s 760 mmHg 79%
    13:00 +20°C° 0.5 mm 3 m/s 759 mmHg 79%
    14:00 +20°C° 0.5 mm 3 m/s 759 mmHg 78%
    15:00 +19°C° 0.3 mm 3 m/s 759 mmHg 81%
    16:00 +18°C° 0.3 mm 3 m/s 759 mmHg 84%
    17:00 +18°C° 0.3 mm 3 m/s 759 mmHg 86%
    18:00 +17°C° 0.1 mm 3 m/s 759 mmHg 88%
    19:00 +16°C° 0.1 mm 3 m/s 760 mmHg 90%
    20:00 +16°C° 0.1 mm 2 m/s 760 mmHg 93%
    21:00 +16°C° 0 mm 2 m/s 760 mmHg 93%
    22:00 +16°C° 0 mm 2 m/s 760 mmHg 94%
    23:00 +16°C° 0 mm 1 m/s 760 mmHg 95%

    23 Outubro, Quarta-feira

    Tempo Temperatura Precipitação Vento Pressão Humidade
    00:00 +15°C° 0.1 mm 1 m/s 760 mmHg 95%
    01:00 +15°C° 0.1 mm 1 m/s 760 mmHg 95%
    02:00 +14°C° 0.1 mm 1 m/s 759 mmHg 95%
    03:00 +14°C° 0.1 mm 2 m/s 759 mmHg 95%
    04:00 +13°C° 0.1 mm 2 m/s 759 mmHg 95%
    05:00 +13°C° 0.1 mm 2 m/s 759 mmHg 96%
    06:00 +14°C° 0 mm 3 m/s 759 mmHg 90%
    07:00 +16°C° 0 mm 3 m/s 760 mmHg 85%
    08:00 +17°C° 0 mm 3 m/s 760 mmHg 80%
    09:00 +19°C° 0 mm 3 m/s 760 mmHg 71%
    10:00 +20°C° 0 mm 3 m/s 760 mmHg 63%
    11:00 +21°C° 0 mm 4 m/s 759 mmHg 54%
    12:00 +21°C° 0 mm 4 m/s 759 mmHg 56%
    13:00 +21°C° 0 mm 4 m/s 759 mmHg 58%
    14:00 +21°C° 0 mm 5 m/s 759 mmHg 60%
    15:00 +20°C° 0 mm 5 m/s 759 mmHg 64%
    16:00 +20°C° 0 mm 5 m/s 759 mmHg 67%
    17:00 +19°C° 0 mm 5 m/s 759 mmHg 71%
    18:00 +17°C° 0 mm 4 m/s 759 mmHg 78%
    19:00 +15°C° 0 mm 4 m/s 760 mmHg 85%
    20:00 +13°C° 0 mm 3 m/s 760 mmHg 92%
    21:00 +13°C° 0 mm 3 m/s 761 mmHg 92%
    22:00 +13°C° 0 mm 4 m/s 761 mmHg 92%
    23:00 +13°C° 0 mm 4 m/s 761 mmHg 91%
    Mostrar mais